Tracking 30106 objects as of 24-Jan-2025
HD Live streaming from Space Station
objects crossing your sky now

ARIANE 44L R/B

Track ARIANE 44L R/B now!


NORAD ID: 24654
Int'l Code: 1996-063C
Perigee: 339.6 km
Apogee: 33,679.2 km
Inclination: 3.8 °
Period: 593.0 minutes
Semi major axis: 23380 km
RCS: 21.8901 m2 (large)
Launch date: November 13, 1996
Source: France (FR)
Launch site: FRENCH GUIANA (FRGUI)

Note: This is a ROCKET BODY
Your satellite tracking list
Your tracking list is empty




NASA's NSSDC Master Catalog

Two Line Element Set (TLE):
1 24654U 96063C   25023.53951105  .00004250  00000-0  44968-2 0  9990
2 24654   3.7680 211.5408 7129816 100.0206 340.1547  2.42842681240558
Source of the keplerian elements: AFSPC